Weather History for Jackson Hawkins Field, MS

Change the Weather History Date:

Wednesday, April 17, 2013

  Actual Average (KJAN) Record (KJAN)
Temperature  
Mean Temperature 79 °F 64 °F  
Max Temperature 89 °F 76 °F 91 °F (1925)
Min Temperature 70 °F 52 °F 37 °F (1999)
Degree Days  
Heating Degree Days 0 3  
Month to date heating degree days 80  
Since 1 July heating degree days 2350  
Cooling Degree Days 14 3  
Month to date cooling degree days 36  
Year to date cooling degree days 73  
Growing Degree Days 29 (Base 50)    
Moisture  
Dew Point 67 °F    
Average Humidity 72    
Maximum Humidity 93    
Minimum Humidity 48    
Precipitation  
Precipitation 0.00 in 0.16 in 4.00 in (1900)
Month to date precipitation 3.01  
Year to date precipitation 17.78  
Sea Level Pressure  
Sea Level Pressure 30.00 in    
Wind  
Wind Speed 9 mph (SSE)    
Max Wind Speed 20 mph    
Max Gust Speed 24 mph    
Visibility 9 miles    
Events      
T = Trace of Precipitation, MM = Missing Value Source: NWS Daily Summary

Daily Weather History Graph

Daily Weather History Graph

Search for Another Location

Airport:

Trip Planner

Search our weather history database for the weather conditions in past years. The results will help you decide how hot, cold, wet, or windy it might be!

Date:

Astronomy

Apr. 17, 2013 Rise Set
Actual Time 6:29 AM CDT 7:32 PM CDT
Civil Twilight 6:03 AM CDT 7:57 PM CDT
Nautical Twilight 5:33 AM CDT 8:27 PM CDT
Astronomical Twilight 5:02 AM CDT 8:58 PM CDT
Moon 11:49 AM CDT (4/17) 1:02 AM CDT (4/17)
Length of Visible Light 13h 53m
Length of Day
13h 03m
Waxing Crescent, 42% of the Moon is Illuminated
Apr 17
Waxing Crescent
Apr 18
First Quarter
Apr 25
Full
May 2
Last Quarter
May 9
New

Hourly Weather History & Observations

Time (CDT) Temp. Heat Index Dew Point Humidity Pressure Visibility Wind Dir Wind Speed Gust Speed Precip Events Conditions
12:53 AM 73.0 °F - 69.1 °F 87% 30.05 in 10.0 mi SSE 6.9 mph - N/A   Clear
1:53 AM 72.0 °F - 69.1 °F 91% 30.04 in 9.0 mi SSE 4.6 mph - N/A   Clear
2:40 AM 71.6 °F - 68.0 °F 88% 30.06 in 8.0 mi SSE 5.8 mph - N/A   Partly Cloudy
2:53 AM 71.1 °F - 69.1 °F 93% 30.04 in 7.0 mi SSE 5.8 mph - N/A   Mostly Cloudy
3:53 AM 72.0 °F - 69.1 °F 91% 30.03 in 7.0 mi SE 8.1 mph - N/A   Overcast
4:53 AM 71.1 °F - 68.0 °F 90% 30.03 in 8.0 mi SE 6.9 mph - N/A   Overcast
5:31 AM 71.6 °F - 68.0 °F 88% 30.06 in 7.0 mi SE 5.8 mph - N/A   Scattered Clouds
5:53 AM 71.1 °F - 68.0 °F 90% 30.04 in 6.0 mi SE 4.6 mph - N/A   Partly Cloudy
6:53 AM 70.0 °F - 68.0 °F 93% 30.05 in 3.0 mi ESE 6.9 mph - N/A   Clear
7:53 AM 72.0 °F - 68.0 °F 87% 30.07 in 5.0 mi ESE 5.8 mph - N/A   Clear
9:53 AM 77.0 °F - 66.9 °F 71% 30.08 in 10.0 mi SSE 9.2 mph - N/A   Clear
10:53 AM 80.1 °F 82.3 °F 66.9 °F 64% 30.08 in 10.0 mi SSE 10.4 mph - N/A   Clear
11:53 AM 84.0 °F 86.5 °F 66.9 °F 56% 30.06 in 10.0 mi SSE 12.7 mph - N/A   Partly Cloudy
12:53 PM 82.9 °F 84.6 °F 64.9 °F 54% 30.04 in 10.0 mi South 17.3 mph 23.0 mph N/A   Clear
1:53 PM 86.0 °F 88.2 °F 66.0 °F 51% 30.01 in 10.0 mi South 19.6 mph 24.2 mph N/A   Clear
2:53 PM 87.1 °F 89.9 °F 66.9 °F 51% 29.98 in 10.0 mi SSE 16.1 mph 24.2 mph N/A   Clear
3:53 PM 88.0 °F 90.3 °F 66.0 °F 48% 29.95 in 10.0 mi South 18.4 mph 24.2 mph N/A   Scattered Clouds
4:53 PM 87.1 °F 89.2 °F 66.0 °F 49% 29.94 in 10.0 mi SSE 17.3 mph 24.2 mph N/A   Mostly Cloudy
5:53 PM 86.0 °F 88.2 °F 66.0 °F 51% 29.93 in 10.0 mi South 11.5 mph 19.6 mph N/A   Clear
6:53 PM 82.9 °F 84.6 °F 64.9 °F 54% 29.92 in 10.0 mi South 12.7 mph - N/A   Clear
7:53 PM 80.1 °F 82.1 °F 66.0 °F 62% 29.91 in 10.0 mi SSE 10.4 mph - N/A   Clear
8:53 PM 78.1 °F - 66.0 °F 66% 29.92 in 10.0 mi SSE 12.7 mph - N/A   Clear
9:53 PM 77.0 °F - 66.9 °F 71% 29.93 in 10.0 mi SSE 15.0 mph 24.2 mph N/A   Clear
10:53 PM 75.0 °F - 66.9 °F 76% 29.92 in 10.0 mi SSE 15.0 mph 24.2 mph N/A   Clear
11:53 PM 73.9 °F - 68.0 °F 82% 29.92 in 10.0 mi SSE 15.0 mph - N/A   Mostly Cloudy